Weather Roundup
Issued by NWS Springfield, MO

Home | Current Version | Previous Version | Text Only | Print | Product List | Glossary On
Versions: 1 2 3 4 5 6 7 8 9 10 11 12 13 14 15 16 17 18 19 20 21 22 23 24 25 26 27 28 29 30 31 32 33 34 35 36 37 38 39 40 41 42 43 44 45 46 47 48 49 50
000
NZUS99 KSGF 120807
HRRSGF

HOURLY WEATHER
NATIONAL WEATHER SERVICE SPRINGFIELD MO
200 AM CST FRI FEB 12 2016

......SGF CWA......

CITY           SKY/WX    TMP DP  RH WIND       PRES   REMARKS
SPRINGFIELD    MOCLDY    35  22  58 S8        30.12S WCI  29
JOPLIN         CLEAR     30  23  75 S5        30.16F WCI  25
WEST PLAINS    MOCLDY    32  20  61 S5        30.14F WCI  27
ROLLA          CLOUDY    27  22  81 E5        30.13S WCI  22
OSAGE BEACH    CLOUDY    30  18  59 NE5       30.16R WCI  25

......SURROUNDING SGF CWA......

CITY           SKY/WX    TMP DP  RH WIND       PRES   REMARKS
CHANUTE        CLEAR     27  22  81 W3        30.17R
PARSONS        PTCLDY    25  22  88 CALM      30.18R
COFFEYVILLE    CLEAR     28  23  81 CALM      30.18F
EMPORIA        CLEAR     25  21  85 NW6       30.17R WCI  18
GROVE OK       CLEAR     32  28  86 CALM      30.18F
ROGERS AR      CLEAR     35  24  64 SW3       30.16S
SILOAM SPRINGS CLEAR     36  21  55 CALM      30.17F
HARRISON AR    CLEAR     34  22  61 CALM      30.15F
NEAR YELLVILLE CLEAR     34  19  55 CALM      30.16R

......KANSAS AND MISSOURI......

CITY           SKY/WX    TMP DP  RH WIND       PRES   REMARKS
KANSAS CTY INT CLOUDY    29  21  72 NE7       30.19R WCI  22
DOWNTOWN KC    CLOUDY    31  21  66 NE8       30.20R WCI  23
COLUMBIA       CLOUDY    26  23  88 NE6       30.20R WCI  19
SEDALIA        CLOUDY    29  24  82 NE9       30.19S WCI  20
ST JOSEPH      CLOUDY    30  20  66 NE6       30.21F WCI  24
ST LOUIS       FLURRIES  26  20  77 E5        30.22F WCI  20
SPIRIT OF STL  FLURRIES  25  21  86 E6        30.21S WCI  18
KIRKSVILLE     CLOUDY    21  16  81 E5        30.22S WCI  15
WICHITA        PTCLDY    32  25  75 W3        30.18S
TOPEKA         PTCLDY    27  21  78 CALM      30.20R
OLATHE         CLOUDY    30  21  69 N5        30.18R WCI  25

......TENNESSEE......

CITY           SKY/WX    TMP DP  RH WIND       PRES   REMARKS
MEMPHIS        CLOUDY    40  24  53 NE5       30.17S
NASHVILLE      CLOUDY    34  20  56 E5        30.17F WCI  30

......ARKANSAS.......

CITY           SKY/WX    TMP DP  RH WIND       PRES   REMARKS
FAYETTEVILLE   PTCLDY    28  25  88 S6        30.17F WCI  22
FT SMITH       CLEAR     38  25  59 NE5       30.21R WCI  34
LITTLE ROCK    PTCLDY    36  25  64 N6        30.21S WCI  31

......OKLAHOMA.......

CITY           SKY/WX    TMP DP  RH WIND       PRES   REMARKS
TULSA          CLEAR     35  28  75 CALM      30.18F
PONCA CITY     CLEAR     28  24  85 CALM      30.19S
MCALESTER      PTCLDY    34  28  79 CALM      30.19R
OKLAHOMA CITY  CLOUDY    39  31  72 N6        30.18R WCI  35

......IOWA............

CITY           SKY/WX    TMP DP  RH WIND       PRES   REMARKS
DES MOINES     FLURRIES  19  15  84 W3        30.22S
QUAD CITIES    CLOUDY    21  13  71 W6        30.22F WCI  13

......ILLINOIS........

CITY           SKY/WX    TMP DP  RH WIND       PRES   REMARKS
QUINCY         LGT SNOW  20  17  88 CALM      30.22F FOG
CHICAGO        CLOUDY    19   7  59 SW9       30.18F WCI   8



USA.gov is the U.S. government's official web portal to all federal, state and local government web resources and services.